Time,TemperatureF,DewpointF,PressureIn,WindDirection,WindDirectionDegrees,WindSpeedMPH,WindSpeedGustMPH,Humidity,HourlyPrecipIn,Conditions,Clouds,dailyrainin,SoftwareType,DateUTC
2013-02-03 00:04:00,31.0,-99.9,30.01,WSW,240,7.0,9.0,-999,-99.99,,,-99.99,,2013-02-03 05:04:00,
2013-02-03 00:12:00,31.0,-99.9,30.00,WSW,250,7.0,9.0,-999,-99.99,,,-99.99,,2013-02-03 05:12:00,
2013-02-03 00:23:00,31.0,-99.9,30.00,West,270,4.0,7.0,-999,-99.99,,,-99.99,,2013-02-03 05:23:00,
2013-02-03 00:32:00,31.0,-99.9,29.99,West,260,4.0,4.0,-999,-99.99,,,-99.99,,2013-02-03 05:32:00,
2013-02-03 00:42:00,31.0,-99.9,29.99,WNW,290,4.0,4.0,-999,-99.99,,,-99.99,,2013-02-03 05:42:00,
2013-02-03 00:53:00,31.0,-99.9,29.98,WNW,300,2.0,4.0,-999,-99.99,,,-99.99,,2013-02-03 05:53:00,
2013-02-03 01:02:00,31.0,-99.9,29.98,West,280,2.0,4.0,-999,-99.99,,,-99.99,,2013-02-03 06:02:00,
2013-02-03 01:11:00,30.0,-99.9,29.97,SW,230,2.0,2.0,-999,-99.99,,,-99.99,,2013-02-03 06:11:00,
2013-02-03 01:22:00,30.0,-99.9,29.97,WSW,250,2.0,2.0,-999,-99.99,,,-99.99,,2013-02-03 06:22:00,
2013-02-03 01:32:00,30.0,-99.9,29.97,North,0,0.0,2.0,-999,-99.99,,,-99.99,,2013-02-03 06:32:00,
2013-02-03 01:42:00,30.0,-99.9,29.97,SW,220,2.0,4.0,-999,-99.99,,,-99.99,,2013-02-03 06:42:00,
2013-02-03 01:52:00,30.0,-99.9,29.97,SSW,210,2.0,4.0,-999,-99.99,,,-99.99,,2013-02-03 06:52:00,
2013-02-03 02:02:00,30.0,-99.9,29.97,WSW,240,2.0,4.0,-999,-99.99,,,-99.99,,2013-02-03 07:02:00,
2013-02-03 02:11:00,30.0,-99.9,29.96,WNW,300,2.0,4.0,-999,-99.99,,,-99.99,,2013-02-03 07:11:00,
2013-02-03 02:22:00,30.0,-99.9,29.96,WNW,300,2.0,2.0,-999,-99.99,,,-99.99,,2013-02-03 07:22:00,
2013-02-03 02:32:00,30.0,-99.9,29.96,NNW,340,2.0,4.0,-999,-99.99,,,-99.99,,2013-02-03 07:32:00,
2013-02-03 02:42:00,30.0,-99.9,29.95,North,360,2.0,4.0,-999,-99.99,,,-99.99,,2013-02-03 07:42:00,
2013-02-03 02:53:00,30.0,-99.9,29.95,North,360,4.0,4.0,-999,-99.99,,,-99.99,,2013-02-03 07:53:00,
2013-02-03 03:02:00,30.0,-99.9,29.94,North,10,4.0,7.0,-999,-99.99,,,-99.99,,2013-02-03 08:02:00,
2013-02-03 03:11:00,30.0,-99.9,29.94,North,10,4.0,7.0,-999,-99.99,,,-99.99,,2013-02-03 08:11:00,
2013-02-03 03:22:00,30.0,-99.9,29.94,NE,40,2.0,4.0,-999,-99.99,,,-99.99,,2013-02-03 08:22:00,
2013-02-03 03:32:00,30.0,-99.9,29.94,NE,40,2.0,4.0,-999,-99.99,,,-99.99,,2013-02-03 08:32:00,
2013-02-03 03:42:00,30.0,-99.9,29.93,NNE,20,2.0,4.0,-999,-99.99,,,-99.99,,2013-02-03 08:42:00,
2013-02-03 03:52:00,30.0,-99.9,29.93,North,360,2.0,4.0,-999,-99.99,,,-99.99,,2013-02-03 08:52:00,
2013-02-03 04:03:00,30.0,-99.9,29.92,NNE,30,2.0,4.0,-999,-99.99,,,-99.99,,2013-02-03 09:03:00,
2013-02-03 04:11:00,30.0,-99.9,29.91,NNE,30,2.0,4.0,-999,-99.99,,,-99.99,,2013-02-03 09:11:00,
2013-02-03 04:22:00,30.0,-99.9,29.91,NE,40,2.0,4.0,-999,-99.99,,,-99.99,,2013-02-03 09:22:00,
2013-02-03 04:32:00,30.0,-99.9,29.91,NE,40,2.0,4.0,-999,-99.99,,,-99.99,,2013-02-03 09:32:00,
2013-02-03 04:42:00,30.0,-99.9,29.91,NNE,30,4.0,7.0,-999,-99.99,,,-99.99,,2013-02-03 09:42:00,
2013-02-03 04:52:00,30.0,-99.9,29.91,North,10,4.0,7.0,-999,-99.99,,,-99.99,,2013-02-03 09:52:00,
2013-02-03 05:02:00,30.0,-99.9,29.91,North,10,7.0,7.0,-999,-99.99,,,-99.99,,2013-02-03 10:02:00,
2013-02-03 05:11:00,30.0,-99.9,29.91,North,10,7.0,7.0,-999,-99.99,,,-99.99,,2013-02-03 10:11:00,
2013-02-03 05:22:00,29.0,-99.9,29.90,North,360,4.0,7.0,-999,-99.99,,,-99.99,,2013-02-03 10:22:00,
2013-02-03 05:32:00,29.0,-99.9,29.90,North,350,4.0,7.0,-999,-99.99,,,-99.99,,2013-02-03 10:32:00,
2013-02-03 05:42:00,29.0,-99.9,29.91,North,350,4.0,7.0,-999,-99.99,,,-99.99,,2013-02-03 10:42:00,
2013-02-03 05:53:00,29.0,-99.9,29.91,North,360,4.0,7.0,-999,-99.99,,,-99.99,,2013-02-03 10:53:00,
2013-02-03 06:02:00,29.0,-99.9,29.91,North,360,4.0,7.0,-999,-99.99,,,-99.99,,2013-02-03 11:02:00,
2013-02-03 06:11:00,29.0,-99.9,29.91,North,10,4.0,7.0,-999,-99.99,,,-99.99,,2013-02-03 11:11:00,
2013-02-03 06:22:00,29.0,-99.9,29.91,North,360,4.0,7.0,-999,-99.99,,,-99.99,,2013-02-03 11:22:00,
2013-02-03 06:32:00,29.0,-99.9,29.90,North,360,4.0,7.0,-999,-99.99,,,-99.99,,2013-02-03 11:32:00,
2013-02-03 06:42:00,29.0,-99.9,29.91,North,350,4.0,7.0,-999,-99.99,,,-99.99,,2013-02-03 11:42:00,
2013-02-03 06:52:00,29.0,-99.9,29.91,North,350,4.0,7.0,-999,-99.99,,,-99.99,,2013-02-03 11:52:00,
2013-02-03 07:03:00,29.0,-99.9,29.91,North,360,4.0,7.0,-999,-99.99,,,-99.99,,2013-02-03 12:03:00,
2013-02-03 07:12:00,29.0,-99.9,29.91,North,360,4.0,7.0,-999,-99.99,,,-99.99,,2013-02-03 12:12:00,
2013-02-03 07:22:00,30.0,-99.9,29.91,NE,50,7.0,11.0,-999,-99.99,,,-99.99,,2013-02-03 12:22:00,
2013-02-03 07:33:00,30.0,-99.9,29.91,ENE,60,11.0,13.0,-999,-99.99,,,-99.99,,2013-02-03 12:33:00,
2013-02-03 07:42:00,30.0,-99.9,29.91,NE,50,9.0,13.0,-999,-99.99,,,-99.99,,2013-02-03 12:42:00,
2013-02-03 07:53:00,30.0,-99.9,29.92,NE,50,9.0,11.0,-999,-99.99,,,-99.99,,2013-02-03 12:53:00,
2013-02-03 08:04:00,30.0,-99.9,29.92,ENE,60,9.0,11.0,-999,-99.99,,,-99.99,,2013-02-03 13:04:00,
2013-02-03 08:12:00,30.0,-99.9,29.92,ENE,60,9.0,11.0,-999,-99.99,,,-99.99,,2013-02-03 13:12:00,
2013-02-03 08:22:00,30.0,-99.9,29.93,ENE,70,9.0,11.0,-999,-99.99,,,-99.99,,2013-02-03 13:22:00,
2013-02-03 08:32:00,30.0,-99.9,29.93,East,80,9.0,11.0,-999,-99.99,,,-99.99,,2013-02-03 13:32:00,
2013-02-03 08:42:00,30.0,-99.9,29.93,ENE,70,9.0,11.0,-999,-99.99,,,-99.99,,2013-02-03 13:42:00,
2013-02-03 08:53:00,30.0,-99.9,29.93,East,80,9.0,13.0,-999,-99.99,,,-99.99,,2013-02-03 13:53:00,
2013-02-03 09:03:00,29.0,-99.9,29.93,East,80,9.0,11.0,-999,-99.99,,,-99.99,,2013-02-03 14:03:00,
2013-02-03 09:12:00,29.0,-99.9,29.93,East,100,9.0,11.0,-999,-99.99,,,-99.99,,2013-02-03 14:12:00,
2013-02-03 09:22:00,29.0,-99.9,29.93,East,100,9.0,11.0,-999,-99.99,,,-99.99,,2013-02-03 14:22:00,
2013-02-03 09:32:00,29.0,-99.9,29.93,East,100,7.0,9.0,-999,-99.99,,,-99.99,,2013-02-03 14:32:00,
2013-02-03 09:43:00,29.0,-99.9,29.93,East,100,7.0,9.0,-999,-99.99,,,-99.99,,2013-02-03 14:43:00,
2013-02-03 09:52:00,29.0,-99.9,29.93,East,100,7.0,11.0,-999,-99.99,,,-99.99,,2013-02-03 14:52:00,
2013-02-03 10:03:00,29.0,-99.9,29.93,East,90,7.0,9.0,-999,-99.99,,,-99.99,,2013-02-03 15:03:00,
2013-02-03 10:12:00,29.0,-99.9,29.93,East,90,7.0,9.0,-999,-99.99,,,-99.99,,2013-02-03 15:12:00,
2013-02-03 10:23:00,29.0,-99.9,29.92,East,80,7.0,9.0,-999,-99.99,,,-99.99,,2013-02-03 15:23:00,
2013-02-03 10:33:00,30.0,-99.9,29.92,East,80,7.0,9.0,-999,-99.99,,,-99.99,,2013-02-03 15:33:00,
2013-02-03 10:42:00,29.0,-99.9,29.91,East,80,7.0,11.0,-999,-99.99,,,-99.99,,2013-02-03 15:42:00,
2013-02-03 10:52:00,30.0,-99.9,29.91,ENE,60,4.0,7.0,-999,-99.99,,,-99.99,,2013-02-03 15:52:00,
2013-02-03 11:03:00,30.0,-99.9,29.91,ENE,70,4.0,7.0,-999,-99.99,,,-99.99,,2013-02-03 16:03:00,
2013-02-03 11:12:00,30.0,-99.9,29.91,ENE,70,4.0,7.0,-999,-99.99,,,-99.99,,2013-02-03 16:12:00,
2013-02-03 11:22:00,30.0,-99.9,29.90,ENE,70,4.0,7.0,-999,-99.99,,,-99.99,,2013-02-03 16:22:00,
2013-02-03 11:33:00,30.0,-99.9,29.90,ENE,70,4.0,7.0,-999,-99.99,,,-99.99,,2013-02-03 16:33:00,
2013-02-03 11:42:00,30.0,-99.9,29.90,ESE,110,2.0,4.0,-999,-99.99,,,-99.99,,2013-02-03 16:42:00,
2013-02-03 11:52:00,31.0,-99.9,29.89,East,90,2.0,7.0,-999,-99.99,,,-99.99,,2013-02-03 16:52:00,
2013-02-03 12:03:00,31.0,-99.9,29.89,North,0,0.0,2.0,-999,-99.99,,,-99.99,,2013-02-03 17:03:00,
2013-02-03 12:12:00,32.0,-99.9,29.88,South,180,2.0,4.0,-999,-99.99,,,-99.99,,2013-02-03 17:12:00,
2013-02-03 12:22:00,32.0,-99.9,29.88,SSW,200,2.0,2.0,-999,-99.99,,,-99.99,,2013-02-03 17:22:00,
2013-02-03 12:32:00,33.0,-99.9,29.88,North,0,0.0,2.0,-999,-99.99,,,-99.99,,2013-02-03 17:32:00,
2013-02-03 12:42:00,33.0,-99.9,29.87,North,0,0.0,2.0,-999,-99.99,,,-99.99,,2013-02-03 17:42:00,
2013-02-03 12:53:00,33.0,-99.9,29.87,North,0,0.0,2.0,-999,-99.99,,,-99.99,,2013-02-03 17:53:00,
2013-02-03 13:03:00,33.0,-99.9,29.87,North,0,0.0,2.0,-999,-99.99,,,-99.99,,2013-02-03 18:03:00,
2013-02-03 13:12:00,33.0,-99.9,29.87,North,0,0.0,2.0,-999,-99.99,,,-99.99,,2013-02-03 18:12:00,
2013-02-03 13:23:00,32.0,-99.9,29.85,East,100,2.0,2.0,-999,-99.99,,,-99.99,,2013-02-03 18:23:00,
2013-02-03 13:33:00,32.0,-99.9,29.85,ESE,120,2.0,4.0,-999,-99.99,,,-99.99,,2013-02-03 18:33:00,
2013-02-03 13:42:00,32.0,-99.9,29.84,South,170,4.0,7.0,-999,-99.99,,,-99.99,,2013-02-03 18:42:00,
2013-02-03 13:52:00,31.0,-99.9,29.84,SSE,160,4.0,7.0,-999,-99.99,,,-99.99,,2013-02-03 18:52:00,
2013-02-03 14:03:00,31.0,-99.9,29.84,SSE,150,2.0,4.0,-999,-99.99,,,-99.99,,2013-02-03 19:03:00,
2013-02-03 14:11:00,31.0,-99.9,29.84,SSE,160,4.0,7.0,-999,-99.99,,,-99.99,,2013-02-03 19:11:00,
2013-02-03 14:22:00,32.0,-99.9,29.83,SSE,150,4.0,4.0,-999,-99.99,,,-99.99,,2013-02-03 19:22:00,
2013-02-03 14:33:00,32.0,-99.9,29.83,SSE,150,4.0,4.0,-999,-99.99,,,-99.99,,2013-02-03 19:33:00,
2013-02-03 14:42:00,32.0,-99.9,29.83,South,170,4.0,7.0,-999,-99.99,,,-99.99,,2013-02-03 19:42:00,
2013-02-03 14:52:00,32.0,-99.9,29.83,SSE,160,4.0,7.0,-999,-99.99,,,-99.99,,2013-02-03 19:52:00,
2013-02-03 15:02:00,32.0,-99.9,29.83,South,170,4.0,7.0,-999,-99.99,,,-99.99,,2013-02-03 20:02:00,
2013-02-03 15:12:00,32.0,-99.9,29.83,South,180,7.0,7.0,-999,-99.99,,,-99.99,,2013-02-03 20:12:00,
2013-02-03 15:22:00,32.0,-99.9,29.82,South,180,7.0,9.0,-999,-99.99,,,-99.99,,2013-02-03 20:22:00,
2013-02-03 15:33:00,33.0,-99.9,29.83,South,190,7.0,9.0,-999,-99.99,,,-99.99,,2013-02-03 20:33:00,
2013-02-03 15:42:00,32.0,-99.9,29.83,SSW,200,7.0,9.0,-999,-99.99,,,-99.99,,2013-02-03 20:42:00,
2013-02-03 15:52:00,33.0,-99.9,29.83,SSW,200,7.0,9.0,-999,-99.99,,,-99.99,,2013-02-03 20:52:00,
2013-02-03 16:04:00,32.0,-99.9,29.83,South,190,7.0,9.0,-999,-99.99,,,-99.99,,2013-02-03 21:04:00,
2013-02-03 16:11:00,32.0,-99.9,29.83,South,190,7.0,9.0,-999,-99.99,,,-99.99,,2013-02-03 21:11:00,
2013-02-03 16:22:00,32.0,-99.9,29.83,SSW,210,7.0,9.0,-999,-99.99,,,-99.99,,2013-02-03 21:22:00,
2013-02-03 16:33:00,32.0,-99.9,29.83,SSW,210,7.0,9.0,-999,-99.99,,,-99.99,,2013-02-03 21:33:00,
2013-02-03 16:43:00,32.0,-99.9,29.83,SSW,210,9.0,9.0,-999,-99.99,,,-99.99,,2013-02-03 21:43:00,
2013-02-03 16:52:00,32.0,-99.9,29.83,SSW,200,9.0,9.0,-999,-99.99,,,-99.99,,2013-02-03 21:52:00,
2013-02-03 17:02:00,32.0,-99.9,29.83,SSW,200,7.0,9.0,-999,-99.99,,,-99.99,,2013-02-03 22:02:00,
2013-02-03 17:11:00,32.0,-99.9,29.83,SSW,210,4.0,7.0,-999,-99.99,,,-99.99,,2013-02-03 22:11:00,
2013-02-03 17:22:00,32.0,-99.9,29.82,SSW,200,4.0,7.0,-999,-99.99,,,-99.99,,2013-02-03 22:22:00,
2013-02-03 17:32:00,32.0,-99.9,29.82,SSW,200,4.0,7.0,-999,-99.99,,,-99.99,,2013-02-03 22:32:00,
2013-02-03 17:42:00,32.0,-99.9,29.82,SSW,210,4.0,7.0,-999,-99.99,,,-99.99,,2013-02-03 22:42:00,
2013-02-03 17:52:00,32.0,-99.9,29.82,SSW,210,4.0,7.0,-999,-99.99,,,-99.99,,2013-02-03 22:52:00,
2013-02-03 18:02:00,32.0,-99.9,29.83,SSW,210,7.0,9.0,-999,-99.99,,,-99.99,,2013-02-03 23:02:00,
2013-02-03 18:12:00,32.0,-99.9,29.82,SSW,210,7.0,9.0,-999,-99.99,,,-99.99,,2013-02-03 23:12:00,
2013-02-03 18:22:00,32.0,-99.9,29.82,SSW,210,7.0,9.0,-999,-99.99,,,-99.99,,2013-02-03 23:22:00,
2013-02-03 18:33:00,33.0,-99.9,29.83,SW,220,7.0,9.0,-999,-99.99,,,-99.99,,2013-02-03 23:33:00,
2013-02-03 18:42:00,33.0,-99.9,29.83,SW,220,7.0,9.0,-999,-99.99,,,-99.99,,2013-02-03 23:42:00,
2013-02-03 18:52:00,33.0,-99.9,29.83,SW,220,7.0,7.0,-999,-99.99,,,-99.99,,2013-02-03 23:52:00,
2013-02-03 19:02:00,33.0,-99.9,29.83,SW,220,7.0,7.0,-999,-99.99,,,-99.99,,2013-02-04 00:02:00,
2013-02-03 19:11:00,33.0,-99.9,29.83,SW,220,7.0,9.0,-999,-99.99,,,-99.99,,2013-02-04 00:11:00,
2013-02-03 19:22:00,33.0,-99.9,29.83,SW,220,7.0,9.0,-999,-99.99,,,-99.99,,2013-02-04 00:22:00,
2013-02-03 19:32:00,33.0,-99.9,29.83,SW,230,7.0,7.0,-999,-99.99,,,-99.99,,2013-02-04 00:32:00,
2013-02-03 19:42:00,33.0,-99.9,29.84,SW,230,7.0,7.0,-999,-99.99,,,-99.99,,2013-02-04 00:42:00,
2013-02-03 19:52:00,33.0,-99.9,29.84,SW,220,7.0,7.0,-999,-99.99,,,-99.99,,2013-02-04 00:52:00,
2013-02-03 20:01:00,33.0,-99.9,29.84,SW,230,7.0,7.0,-999,-99.99,,,-99.99,,2013-02-04 01:01:00,
2013-02-03 20:11:00,33.0,-99.9,29.84,SW,230,7.0,7.0,-999,-99.99,,,-99.99,,2013-02-04 01:11:00,
2013-02-03 20:22:00,33.0,-99.9,29.84,SW,230,7.0,9.0,-999,-99.99,,,-99.99,,2013-02-04 01:22:00,
2013-02-03 20:32:00,33.0,-99.9,29.84,SW,230,7.0,9.0,-999,-99.99,,,-99.99,,2013-02-04 01:32:00,
2013-02-03 20:42:00,33.0,-99.9,29.85,WSW,240,7.0,9.0,-999,-99.99,,,-99.99,,2013-02-04 01:42:00,
2013-02-03 20:52:00,33.0,-99.9,29.85,WSW,250,9.0,11.0,-999,-99.99,,,-99.99,,2013-02-04 01:52:00,
2013-02-03 21:02:00,33.0,-99.9,29.85,WSW,250,7.0,9.0,-999,-99.99,,,-99.99,,2013-02-04 02:02:00,
2013-02-03 21:11:00,33.0,-99.9,29.85,WSW,250,7.0,9.0,-999,-99.99,,,-99.99,,2013-02-04 02:11:00,
2013-02-03 21:22:00,33.0,-99.9,29.85,WSW,250,9.0,11.0,-999,-99.99,,,-99.99,,2013-02-04 02:22:00,
2013-02-03 21:32:00,33.0,-99.9,29.86,WSW,250,9.0,11.0,-999,-99.99,,,-99.99,,2013-02-04 02:32:00,
2013-02-03 21:42:00,33.0,-99.9,29.86,WSW,250,9.0,11.0,-999,-99.99,,,-99.99,,2013-02-04 02:42:00,
2013-02-03 21:52:00,33.0,-99.9,29.86,WSW,250,11.0,13.0,-999,-99.99,,,-99.99,,2013-02-04 02:52:00,
2013-02-03 22:02:00,33.0,-99.9,29.86,WSW,250,9.0,11.0,-999,-99.99,,,-99.99,,2013-02-04 03:02:00,
2013-02-03 22:11:00,33.0,-99.9,29.86,WSW,250,9.0,11.0,-999,-99.99,,,-99.99,,2013-02-04 03:11:00,
2013-02-03 22:22:00,33.0,-99.9,29.87,West,260,9.0,11.0,-999,-99.99,,,-99.99,,2013-02-04 03:22:00,
2013-02-03 22:32:00,33.0,-99.9,29.87,West,260,9.0,11.0,-999,-99.99,,,-99.99,,2013-02-04 03:32:00,
2013-02-03 22:42:00,33.0,-99.9,29.88,West,260,9.0,11.0,-999,-99.99,,,-99.99,,2013-02-04 03:42:00,
2013-02-03 22:52:00,33.0,-99.9,29.88,West,280,11.0,13.0,-999,-99.99,,,-99.99,,2013-02-04 03:52:00,
2013-02-03 23:02:00,33.0,-99.9,29.88,West,280,11.0,13.0,-999,-99.99,,,-99.99,,2013-02-04 04:02:00,
2013-02-03 23:11:00,34.0,-99.9,29.88,WNW,300,13.0,16.0,-999,-99.99,,,-99.99,,2013-02-04 04:11:00,
2013-02-03 23:22:00,34.0,-99.9,29.89,WNW,300,13.0,22.0,-999,-99.99,,,-99.99,,2013-02-04 04:22:00,
2013-02-03 23:32:00,34.0,-99.9,29.89,WNW,300,13.0,22.0,-999,-99.99,,,-99.99,,2013-02-04 04:32:00,
2013-02-03 23:42:00,34.0,-99.9,29.89,NW,320,20.0,29.0,-999,-99.99,,,-99.99,,2013-02-04 04:42:00,
2013-02-03 23:52:00,33.0,-99.9,29.90,NW,320,20.0,27.0,-999,-99.99,,,-99.99,,2013-02-04 04:52:00,